| time (UTC) | temp F | wind direction | speed MPH | gust MPH | rain 1hr in | rain 24hr in | rain mn in | humidity % | barometer mb |
| 20260504050521 | 45 | 0.0 | 0.0 | 0.00 | 0.00 | 0.00 | 77 | 1018.4 | |
| 20260504045521 | 46 | 0.0 | 0.0 | 0.00 | 0.00 | 0.00 | 77 | 1018.5 | |
| 20260504044521 | 46 | 0.0 | 0.0 | 0.00 | 0.00 | 0.00 | 76 | 1018.5 | |
| 20260504043546 | 46 | 0.0 | 0.0 | 0.00 | 0.00 | 0.00 | 76 | 1018.0 | |
| 20260504042521 | 46 | 0.0 | 0.0 | 0.00 | 0.00 | 0.00 | 76 | 1017.8 | |
| 20260504041521 | 46 | 0.0 | 1.0 | 0.00 | 0.00 | 0.00 | 77 | 1017.9 | |
| 20260504040521 | 46 | 0.0 | 1.0 | 0.00 | 0.00 | 0.00 | 75 | 1017.9 | |
| 20260504035521 | 47 | 0.0 | 1.0 | 0.00 | 0.00 | 0.00 | 75 | 1017.9 | |
| 20260504034521 | 47 | 0.0 | 0.0 | 0.00 | 0.00 | 0.00 | 74 | 1017.8 | |
| 20260504033521 | 48 | 0.0 | 1.0 | 0.00 | 0.00 | 0.00 | 72 | 1017.4 | |
| 20260504032521 | 48 | 0.0 | 1.0 | 0.00 | 0.00 | 0.00 | 71 | 1017.3 | |
| 20260504031521 | 49 | 0.0 | 1.0 | 0.00 | 0.00 | 0.00 | 70 | 1017.5 | |
| 20260504030546 | 49 | 0.0 | 1.0 | 0.00 | 0.00 | 0.00 | 68 | 1017.4 | |
| 20260504025521 | 50 | 0.0 | 1.0 | 0.00 | 0.00 | 0.00 | 67 | 1017.5 | |
| 20260504024520 | 50 | 0.0 | 0.0 | 0.00 | 0.00 | 0.00 | 66 | 1017.8 | |
| 20260504023521 | 50 | 0.0 | 1.0 | 0.00 | 0.00 | 0.00 | 66 | 1017.7 | |
| 20260504022521 | 50 | 0.0 | 1.0 | 0.00 | 0.00 | 0.00 | 66 | 1017.6 | |
| 20260504021520 | 51 | 0.0 | 0.0 | 0.00 | 0.00 | 0.00 | 65 | 1017.8 | |
| 20260504020546 | 51 | 0.0 | 0.0 | 0.00 | 0.00 | 0.00 | 64 | 1017.6 | |
| 20260504015520 | 52 | 0.0 | 0.0 | 0.00 | 0.00 | 0.00 | 62 | 1017.3 | |
| 20260504014546 | 52 | 0.0 | 0.0 | 0.00 | 0.00 | 0.00 | 61 | 1017.3 | |
| 20260504013546 | 52 | 0.0 | 1.0 | 0.00 | 0.00 | 0.00 | 60 | 1016.9 | |
| 20260504012520 | 53 | 0.0 | 0.0 | 0.00 | 0.00 | 0.00 | 59 | 1016.9 | |
| 20260504011521 | 53 | 0.0 | 1.0 | 0.00 | 0.00 | 0.00 | 59 | 1016.8 | |
| 20260504010520 | 54 | 0.0 | 0.0 | 0.00 | 0.00 | 0.00 | 58 | 1016.6 | |
| 20260504005521 | 54 | 0.0 | 0.0 | 0.00 | 0.00 | 0.00 | 57 | 1016.6 | |
| 20260504004546 | 55 | 0.0 | 1.0 | 0.00 | 0.00 | 0.00 | 56 | 1016.5 | |
| 20260504003520 | 56 | 0.0 | 0.0 | 0.00 | 0.00 | 0.00 | 53 | 1016.5 | |
| 20260504002546 | 57 | 0.0 | 0.0 | 0.00 | 0.00 | 0.00 | 51 | 1016.4 | |
| 20260504001521 | 58 | 0.0 | 0.0 | 0.00 | 0.00 | 0.00 | 50 | 1016.5 | |
| 20260504000545 | 59 | 0.0 | 0.0 | 0.00 | 0.00 | 0.00 | 49 | 1016.4 | |
| 20260503235520 | 60 | 0.0 | 1.0 | 0.00 | 0.00 | 0.00 | 47 | 1016.4 | |
| 20260503234545 | 60 | 23 | 1.0 | 2.0 | 0.00 | 0.00 | 0.00 | 45 | 1016.4 |
| 20260503233521 | 61 | 23 | 1.0 | 3.0 | 0.00 | 0.00 | 0.00 | 44 | 1016.3 |
| 20260503232520 | 61 | 23 | 1.0 | 3.0 | 0.00 | 0.00 | 0.00 | 43 | 1016.3 |
| 20260503231520 | 62 | 0.0 | 2.0 | 0.00 | 0.00 | 0.00 | 42 | 1016.1 | |
| 20260503230520 | 62 | 0.0 | 3.0 | 0.00 | 0.00 | 0.00 | 42 | 1016.2 | |
| 20260503225520 | 63 | 23 | 1.0 | 2.0 | 0.00 | 0.00 | 0.00 | 41 | 1016.1 |
| 20260503224520 | 63 | 23 | 1.0 | 3.0 | 0.00 | 0.00 | 0.00 | 40 | 1016.2 |
| 20260503223522 | 63 | 0.0 | 0.0 | 0.00 | 0.00 | 0.00 | 41 | 1016.2 | |
| 20260503222520 | 63 | 23 | 1.0 | 2.0 | 0.00 | 0.00 | 0.00 | 39 | 1016.2 |
| 20260503221522 | 64 | 0.0 | 1.0 | 0.00 | 0.00 | 0.00 | 39 | 1016.3 | |
| 20260503220520 | 64 | 0 | 1.0 | 4.0 | 0.00 | 0.00 | 0.00 | 37 | 1016.3 |
| 20260503215522 | 64 | 0.0 | 2.0 | 0.00 | 0.00 | 0.00 | 39 | 1016.4 | |
| 20260503214522 | 65 | 0.0 | 1.0 | 0.00 | 0.00 | 0.00 | 38 | 1016.4 | |
| 20260503213522 | 65 | 0.0 | 1.0 | 0.00 | 0.00 | 0.00 | 37 | 1016.5 | |
| 20260503212522 | 65 | 23 | 1.0 | 2.0 | 0.00 | 0.00 | 0.00 | 37 | 1016.5 |
| 20260503211522 | 66 | 0 | 1.0 | 4.0 | 0.00 | 0.00 | 0.00 | 35 | 1016.7 |
| 20260503210522 | 66 | 0 | 1.0 | 4.0 | 0.00 | 0.00 | 0.00 | 34 | 1016.9 |
| 20260503205522 | 68 | 0 | 2.0 | 4.0 | 0.00 | 0.00 | 0.00 | 33 | 1017.1 |
| 20260503204547 | 69 | 23 | 2.0 | 4.0 | 0.00 | 0.00 | 0.00 | 32 | 1017.4 |
| 20260503203522 | 69 | 135 | 1.0 | 2.0 | 0.00 | 0.00 | 0.00 | 32 | 1017.5 |
| 20260503202522 | 69 | 0 | 1.0 | 3.0 | 0.00 | 0.00 | 0.00 | 33 | 1017.5 |
| 20260503201613 | 69 | 113 | 1.0 | 2.0 | 0.00 | 0.00 | 0.00 | 34 | 1017.8 |
| 20260503200522 | 69 | 0.0 | 1.0 | 0.00 | 0.00 | 0.00 | 34 | 1018.0 | |
| 20260503195547 | 69 | 135 | 1.0 | 2.0 | 0.00 | 0.00 | 0.00 | 33 | 1018.3 |
| 20260503194547 | 68 | 0.0 | 1.0 | 0.00 | 0.00 | 0.00 | 34 | 1018.2 | |
| 20260503193547 | 67 | 0.0 | 1.0 | 0.00 | 0.00 | 0.00 | 36 | 1018.2 | |
| 20260503192522 | 67 | 23 | 2.0 | 4.0 | 0.00 | 0.00 | 0.00 | 33 | 1018.4 |
| 20260503191547 | 67 | 23 | 1.0 | 3.0 | 0.00 | 0.00 | 0.00 | 35 | 1018.6 |
| 20260503190523 | 67 | 0 | 1.0 | 4.0 | 0.00 | 0.00 | 0.00 | 35 | 1018.7 |
| 20260503185522 | 66 | 23 | 1.0 | 6.0 | 0.00 | 0.00 | 0.00 | 36 | 1018.7 |
| 20260503184522 | 67 | 23 | 1.0 | 2.0 | 0.00 | 0.00 | 0.00 | 34 | 1018.9 |
| 20260503183522 | 67 | 135 | 1.0 | 2.0 | 0.00 | 0.00 | 0.00 | 36 | 1019.0 |
| 20260503182522 | 64 | 0 | 1.0 | 2.0 | 0.00 | 0.00 | 0.00 | 37 | 1018.9 |
| 20260503181522 | 64 | 23 | 3.0 | 7.0 | 0.00 | 0.00 | 0.00 | 37 | 1019.0 |
| 20260503180522 | 64 | 23 | 1.0 | 4.0 | 0.00 | 0.00 | 0.00 | 37 | 1019.2 |
| 20260503175522 | 63 | 23 | 1.0 | 4.0 | 0.00 | 0.00 | 0.00 | 37 | 1019.4 |
| 20260503174547 | 62 | 23 | 2.0 | 5.0 | 0.00 | 0.00 | 0.00 | 37 | 1019.3 |
| 20260503173522 | 62 | 23 | 2.0 | 6.0 | 0.00 | 0.00 | 0.00 | 40 | 1019.4 |
| 20260503172522 | 62 | 0 | 3.0 | 5.0 | 0.00 | 0.00 | 0.00 | 38 | 1019.6 |
| 20260503171547 | 64 | 23 | 1.0 | 4.0 | 0.00 | 0.00 | 0.00 | 38 | 1019.9 |
| 20260503170547 | 63 | 23 | 1.0 | 3.0 | 0.00 | 0.00 | 0.00 | 40 | 1020.1 |
| 20260503150522 | 53 | 0.0 | 1.0 | 0.00 | 0.00 | 0.00 | 52 | 1020.9 | |
| 20260503130521 | 45 | 0.0 | 2.0 | 0.00 | 0.00 | 0.00 | 72 | 1020.4 | |
| 20260503110546 | 39 | 0.0 | 0.0 | 0.00 | 0.00 | 0.00 | 86 | 1018.9 | |
| 20260503081546 | 40 | 0.0 | 0.0 | 0.00 | 0.00 | 0.00 | 83 | 1017.3 | |
| 20260503080521 | 40 | 0.0 | 0.0 | 0.00 | 0.00 | 0.00 | 82 | 1017.4 | |
| 20260503072521 | 41 | 0.0 | 1.0 | 0.00 | 0.00 | 0.00 | 80 | 1017.0 | |
| 20260503071521 | 41 | 0.0 | 0.0 | 0.00 | 0.00 | 0.00 | 80 | 1017.1 | |
| 20260503070521 | 41 | 0.0 | 0.0 | 0.00 | 0.00 | 0.00 | 80 | 1016.9 |